Retour au catalogue

COSMOS 1375 DEB

ActifLEO
NORAD 17103·DEBRIS·🇷🇺 Russia

Lancé Jun 6, 1982 depuis Plesetsk Cosmodrome

Loading…

Prochains Passages (prochaines 24 heures)

TLE

FraisSource: Space-Track

Époque: Sep 14, 2026, 00:29 UTC

1 17103U 82055AE  26257.02059766  .00000128  00000-0  20808-3 0  9991
2 17103  65.8267 275.5845 0031070 312.9891  71.5709 13.77739556 50612

Suivez COSMOS 1375 DEB en temps réel avec AllMySat

Download on the App Store